Regional Weather Roundup
Issued by NWS Little Rock, AR

Home | Current Version | Previous Version | Graphics & Text | Print | Product List | Glossary On
Versions: 1 2 3 4 5 6 7 8 9 10 11 12 13 14 15 16 17 18 19 20 21 22 23 24 25 26 27 28 29 30 31 32 33 34 35 36 37 38 39 40 41 42 43 44 45 46 47 48 49 50
000
ASUS44 KLZK 301005
RWRLZK

WEATHER ROUNDUP FOR ARKANSAS
NATIONAL WEATHER SERVICE LITTLE ROCK AR
500 AM CDT TUE JUN 30 2015

NOTE: "FAIR" INDICATES FEW OR NO CLOUDS BELOW 12,000 FEET WITH NO
SIGNIFICANT WEATHER AND/OR OBSTRUCTIONS TO VISIBILITY.

ARZ001-003-010-029-301100-
NORTHWEST ARKANSAS

CITY           SKY/WX    TMP DP  RH WIND       PRES   REMARKS
FAYETTEVILLE   CLEAR     63  63 100 S6        29.99R
FORT SMITH     CLEAR     72  67  84 CALM      29.96R
HARRISON       CLEAR     65  62  90 W5        29.97S
BENTONVILLE    CLEAR    N/A N/A N/A CALM      29.99R
ROGERS         CLEAR     67  64  90 CALM      30.00R
SILOAM SPGS    CLEAR     63  57  82 SE3       29.99R
HIGHFILL       CLEAR     65  64  97 CALM      29.98R
$$

ARZ004-005-016-301100-
NORTH CENTRAL ARKANSAS

CITY           SKY/WX    TMP DP  RH WIND       PRES   REMARKS
BATESVILLE     CLEAR     66  64  94 W3        29.93R
FLIPPIN        CLEAR     64  63  94 CALM      29.93R
MTN HOME       CLEAR     66  66 100 SW3       29.94R
$$

ARZ040-041-301100-
WEST CENTRAL ARKANSAS

CITY           SKY/WX    TMP DP  RH WIND       PRES   REMARKS
MENA           CLEAR     72  68  88 W3        29.99S
MOUNT IDA      PTCLDY    71  69  93 CALM      29.94S
$$

ARZ009-017-025-026-028-301100-
NORTHEAST ARKANSAS

CITY           SKY/WX    TMP DP  RH WIND       PRES   REMARKS
JONESBORO      CLEAR     71  68  90 CALM      29.90R
NEWPORT        CLEAR     73  68  84 W6        29.92S
WALNUT RIDGE   CLEAR     72  64  78 W5        29.90S
BLYTHEVILLE    CLEAR     74  71  91 SW5       29.90R
$$

ARZ022-023-033-042-044-301100-
CENTRAL ARKANSAS

CITY           SKY/WX    TMP DP  RH WIND       PRES   REMARKS
LITTLE ROCK    MOCLDY    76  68  76 W7        29.93R
N LITTLE ROCK    N/A     76  71  87 W5        29.93R
JACKSONVILLE   PTCLDY    73  70  89 W3        29.92R
SEARCY         CLEAR     70  68  93 CALM      29.93R
HOT SPRINGS    PTCLDY    72  69  90 NW5       29.95S
RUSSELLVILLE   PTCLDY    69  68  96 CALM      29.95R
CLINTON        FAIR      64  64 100 CALM      29.96R
$$

ARZ036-301100-
EAST ARKANSAS

CITY           SKY/WX    TMP DP  RH WIND       PRES   REMARKS
WEST MEMPHIS   PTCLDY    70  67  90 SW3       29.90S
$$

ARZ050-053-066-070-073-301100-
SOUTHWEST ARKANSAS

CITY           SKY/WX    TMP DP  RH WIND       PRES   REMARKS
ARKADELPHIA    FAIR      76  75  96 W5        29.94F
CAMDEN         PTCLDY    75  70  83 NE8       29.95S
TEXARKANA      MOCLDY    78  72  81 SW12      29.95F
EL DORADO      CLEAR     74  70  87 SW8       29.98S
DE QUEEN       PTCLDY    73  72  96 CALM      29.93S FOG
$$

ARZ056-057-069-301100-
SOUTHEAST ARKANSAS

CITY           SKY/WX    TMP DP  RH WIND       PRES   REMARKS
PINE BLUFF     PTCLDY    76  70  82 SW9       29.94R
STUTTGART      CLOUDY    77  72  83 S9        29.94R
MONTICELLO     CLOUDY    77  73  87 N3        30.00R THUNDER

$$





USA.gov is the U.S. government's official web portal to all federal, state and local government web resources and services.